1998-067WM

Last updated on Fri May 03 2024 00:02:04 GMT+0000 (Coordinated Universal Time)

1 59562U 98067WM 24123.43479600 .00060438 00000+0 93740-3 0 9998 2 59562 51.6366 182.0900 0002541 99.2927 260.8350 15.53409011 2191
UTC large
Height (km)
Speed (km/s)
/
Latitude / Longitude
Inclination (degrees)
Orbital Period (minutes)
Azimuth
Elevation
Range (km)
Doppler Factor

Next 0 passes for location: London (51.5072 / 0.1276)

Sorry there are no passes over London.